Weather History for Kansas City International, MO

Change the Weather History Date:

Wednesday, December 12, 2012

  Actual Average Record
Temperature  
Mean Temperature 37 °F 32 °F  
Max Temperature 50 °F 41 °F 70 °F (1889)
Min Temperature 23 °F 23 °F -5 °F (1989)
Degree Days  
Heating Degree Days 28 33  
Month to date heating degree days 257 374  
Since 1 July heating degree days 1204 1376  
Cooling Degree Days 0 0  
Month to date cooling degree days 0 0  
Year to date cooling degree days 1839 1360  
Moisture  
Dew Point 12 °F    
Average Humidity 40    
Maximum Humidity 62    
Minimum Humidity 18    
Precipitation  
Precipitation 0.00 in 0.05 in 0.67 in (2001)
Month to date precipitation 0.02 0.69  
Year to date precipitation 20.96 38.02  
Snow  
Snow 0.00 in 0.20 in 4.00 in (1914)
Month to date snowfall 0.0 1.7  
Since 1 July snowfall T 3.1  
Snow Depth 0.00 in    
Sea Level Pressure  
Sea Level Pressure 30.15 in    
Wind  
Wind Speed 15 mph (South)    
Max Wind Speed 30 mph    
Max Gust Speed 38 mph    
Visibility 10 miles    
Events      
T = Trace of Precipitation, MM = Missing Value Source: NWS Daily Summary

Daily Weather History Graph

Daily Weather History Graph

Search for Another Location

Airport:

Trip Planner

Search our weather history database for the weather conditions in past years. The results will help you decide how hot, cold, wet, or windy it might be!

Date:

Astronomy

Dec. 12, 2012 Rise Set
Actual Time 7:29 AM CST 4:56 PM CST
Civil Twilight 6:59 AM CST 5:26 PM CST
Nautical Twilight 6:26 AM CST 5:59 PM CST
Astronomical Twilight 5:53 AM CST 6:32 PM CST
Moon 6:35 AM CST (12/12) 4:33 PM CST (12/12)
Length of Visible Light 10h 26m
Length of Day
9h 26m
Waning Crescent, 1% of the Moon is Illuminated
Dec 12
Waning Crescent
Dec 13
New
Dec 19
First Quarter
Dec 28
Full
Jan 4
Last Quarter

Hourly Weather History & Observations

Time (CST) Temp. Windchill Dew Point Humidity Pressure Visibility Wind Dir Wind Speed Gust Speed Precip Events Conditions
12:53 AM 27.0 °F 18.0 °F 14.0 °F 58% 30.14 in 10.0 mi SSW 9.2 mph - N/A   Clear
1:53 AM 24.1 °F 14.4 °F 14.0 °F 65% 30.14 in 10.0 mi South 9.2 mph - N/A   Clear
2:53 AM 24.1 °F 13.7 °F 14.0 °F 65% 30.14 in 10.0 mi South 10.4 mph - N/A   Clear
3:53 AM 28.0 °F 18.1 °F 16.0 °F 61% 30.13 in 10.0 mi South 11.5 mph - N/A   Clear
4:53 AM 30.0 °F 20.0 °F 16.0 °F 56% 30.14 in 10.0 mi South 12.7 mph - N/A   Clear
5:53 AM 28.0 °F 18.6 °F 15.1 °F 58% 30.15 in 10.0 mi SSW 10.4 mph - N/A   Clear
6:53 AM 30.0 °F 19.5 °F 15.1 °F 54% 30.16 in 10.0 mi SSW 13.8 mph - N/A   Clear
7:53 AM 30.9 °F 21.2 °F 16.0 °F 54% 30.17 in 10.0 mi SSW 12.7 mph - N/A   Partly Cloudy
8:53 AM 35.1 °F 25.5 °F 16.0 °F 46% 30.19 in 10.0 mi SSW 15.0 mph - N/A   Partly Cloudy
9:53 AM 39.9 °F 30.8 °F 15.1 °F 36% 30.22 in 10.0 mi SSW 18.4 mph 24.2 mph N/A   Partly Cloudy
10:53 AM 44.1 °F 36.2 °F 15.1 °F 31% 30.20 in 10.0 mi SSW 18.4 mph 24.2 mph N/A   Partly Cloudy
11:53 AM 48.0 °F - 12.9 °F 24% 30.17 in 10.0 mi SSW 24.2 mph 31.1 mph N/A   Partly Cloudy
12:53 PM 48.9 °F - 12.0 °F 23% 30.16 in 10.0 mi SSW 18.4 mph - N/A   Partly Cloudy
1:53 PM 50.0 °F - 10.9 °F 21% 30.13 in 9.0 mi South 19.6 mph 27.6 mph N/A   Partly Cloudy
2:53 PM 50.0 °F - 9.0 °F 19% 30.12 in 10.0 mi South 17.3 mph - N/A   Partly Cloudy
3:53 PM 48.0 °F - 7.0 °F 19% 30.12 in 10.0 mi SSW 19.6 mph 28.8 mph N/A   Partly Cloudy
4:53 PM 45.0 °F 38.2 °F 8.1 °F 22% 30.11 in 10.0 mi South 15.0 mph - N/A   Partly Cloudy
5:53 PM 43.0 °F 35.4 °F 10.0 °F 26% 30.10 in 10.0 mi South 16.1 mph - N/A   Partly Cloudy
6:53 PM 41.0 °F 33.9 °F 12.0 °F 31% 30.12 in 10.0 mi South 12.7 mph - N/A   Clear
7:53 PM 41.0 °F 33.1 °F 10.9 °F 29% 30.12 in 10.0 mi South 15.0 mph - N/A   Clear
8:53 PM 42.1 °F 33.6 °F 10.0 °F 27% 30.13 in 10.0 mi South 18.4 mph - N/A   Clear
9:53 PM 39.9 °F 32.5 °F 10.0 °F 29% 30.14 in 10.0 mi South 12.7 mph - N/A   Clear
10:53 PM 39.9 °F 31.8 °F 10.0 °F 29% 30.14 in 10.0 mi South 15.0 mph - N/A   Clear
11:53 PM 42.1 °F 33.9 °F 10.0 °F 27% 30.14 in 10.0 mi South 17.3 mph 27.6 mph N/A   Clear